W8AN Weather Reports


time (UTC)temp
F
wind
direction
speed
knots
gust
knots
rain 1hr
in
rain 24hr
in
rain mn
in
humidity
%
barometer
mb
20260508185000 55 221 4.3 5.2 0.00 0.01 0.01 80 4265.4
20260508184458 55 234 6.1 7.0 0.00 0.01 0.01 80 4265.5
20260508183954 55 237 7.8 11.3 0.00 0.01 0.01 78 4265.5
20260508183450 55 235 5.2 7.0 0.00 0.01 0.01 78 4265.4
20260508182946 56 232 5.2 6.1 0.00 0.01 0.01 77 4265.5
20260508182443 57 262 6.1 8.7 0.00 0.01 0.01 74 4265.5
20260508181938 57 237 6.1 8.7 0.00 0.01 0.01 73 4265.7
20260508181435 57 239 7.8 11.3 0.00 0.01 0.01 72 4265.5
20260508180933 57 206 6.1 7.8 0.00 0.01 0.01 72 4265.6
20260508180429 58 223 7.0 7.8 0.00 0.01 0.01 70 4266.0
20260508175925 58 244 5.2 7.8 0.00 0.01 0.01 70 4265.8
20260508175422 57 198 5.2 6.1 0.00 0.01 0.01 70 4265.5
20260508174920 57 246 5.2 6.1 0.00 0.01 0.01 70 4265.8
20260508174417 57 237 6.1 7.0 0.00 0.01 0.01 69 4265.9
20260508173913 57 202 7.0 7.8 0.00 0.01 0.01 70 4265.9
20260508173411 57 233 5.2 8.7 0.00 0.01 0.01 70 4266.3
20260508172906 57 240 6.1 7.8 0.00 0.01 0.01 70 4265.9
20260508172404 57 252 6.1 7.8 0.00 0.01 0.01 71 4265.9
20260508171900 57 232 10.4 12.2 0.00 0.01 0.01 71 4266.2
20260508171356 57 226 7.8 7.8 0.00 0.01 0.01 72 4266.3
20260508170853 56 233 7.8 11.3 0.00 0.01 0.01 70 4266.3
20260508170351 58 267 5.2 7.8 0.00 0.01 0.01 72 4266.5
20260508165847 57 213 7.0 8.7 0.00 0.01 0.01 72 4266.5
20260508165345 57 221 0.0 0.0 0.00 0.01 0.01 71 4266.6
20260508164841 56 219 8.7 9.6 0.00 0.01 0.01 72 4266.5
20260508164338 56 229 7.8 8.7 0.00 0.01 0.01 72 4266.4
20260508163836 56 233 7.8 8.7 0.00 0.01 0.01 71 4266.4
20260508163334 56 226 7.8 8.7 0.00 0.01 0.01 73 4266.8
20260508162829 55 260 4.3 5.2 0.00 0.01 0.01 76 4266.9
20260508162326 55 212 9.6 12.2 0.00 0.01 0.01 76 4267.1
20260508161823 54 246 6.1 7.0 0.00 0.01 0.01 77 4266.9
20260508161320 54 230 0.0 0.0 0.00 0.01 0.01 78 4267.0
20260508160818 54 257 4.3 6.1 0.00 0.01 0.01 77 4267.2
20260508160316 54 247 5.2 7.8 0.00 0.01 0.01 75 4267.4
20260508155812 54 209 7.8 9.6 0.00 0.01 0.01 75 4267.4
20260508155309 54 276 6.1 9.6 0.00 0.01 0.01 74 4267.2
20260508154806 54 236 2.6 6.1 0.00 0.01 0.01 75 4267.2
20260508154304 54 242 2.6 5.2 0.00 0.01 0.01 74 4267.3
20260508153800 54 259 0.0 0.0 0.00 0.01 0.01 74 4267.2
20260508153258 54 243 6.1 7.8 0.00 0.01 0.01 74 4267.2
20260508152754 54 247 6.1 8.7 0.00 0.01 0.01 73 4267.2
20260508152250 54 255 5.2 6.1 0.00 0.01 0.01 74 4267.1
20260508151746 53 269 5.2 6.1 0.00 0.01 0.01 74 4267.3
20260508151243 53 304 6.1 7.8 0.00 0.01 0.01 73 4267.3
20260508150740 53 251 4.3 6.1 0.00 0.01 0.01 74 4267.5
20260508150237 53 239 7.0 8.7 0.00 0.01 0.01 74 4267.2
20260508145732 53 278 7.0 9.6 0.00 0.01 0.01 74 4267.0
20260508145229 54 254 7.0 8.7 0.00 0.01 0.01 73 4267.4
20260508144726 53 242 5.2 7.0 0.00 0.01 0.01 73 4267.3
20260508144224 54 250 4.3 5.2 0.00 0.01 0.01 74 4267.0
20260508143721 54 231 6.1 7.0 0.00 0.01 0.01 74 4267.3
20260508143218 54 236 8.7 9.6 0.00 0.01 0.01 73 4267.4
20260508142714 53 243 6.1 7.0 0.00 0.01 0.01 74 4267.2
20260508142211 53 258 7.0 8.7 0.00 0.01 0.01 73 4267.2
20260508141708 53 222 6.1 7.0 0.00 0.01 0.01 73 4267.3
20260508141205 53 237 6.1 7.8 0.00 0.01 0.01 74 4267.4
20260508140703 53 280 5.2 6.1 0.00 0.01 0.01 75 4267.1
20260508140159 53 241 5.2 6.1 0.00 0.01 0.01 75 4267.3
20260508135656 52 268 4.3 5.2 0.00 0.01 0.01 74 4267.0
20260508135151 52 218 6.1 7.0 0.00 0.01 0.01 75 4267.4
20260508134647 52 240 6.1 7.8 0.00 0.01 0.01 75 4267.0
20260508134145 52 252 4.3 5.2 0.00 0.01 0.01 75 4267.1
20260508133642 52 253 4.3 5.2 0.00 0.01 0.01 75 4267.3
20260508133139 52 222 7.0 7.8 0.00 0.01 0.01 75 4267.4
20260508132637 52 269 2.6 2.6 0.00 0.01 0.01 76 4267.4
20260508132133 52 271 5.2 7.0 0.00 0.01 0.01 75 4267.3
20260508131629 52 228 4.3 5.2 0.00 0.01 0.01 76 4267.2
20260508131126 51 261 7.0 7.8 0.00 0.01 0.01 75 4267.3
20260508130622 51 264 6.1 7.0 0.00 0.01 0.01 76 4267.3
20260508130119 51 259 4.3 5.2 0.00 0.01 0.01 76 4267.3
20260508125620 51 265 6.1 6.1 0.00 0.01 0.01 76 4267.2
20260508125118 50 269 7.0 7.8 0.00 0.01 0.01 76 4267.3
20260508124616 50 213 6.1 6.1 0.00 0.01 0.01 76 4267.3
20260508124112 50 270 5.2 6.1 0.00 0.01 0.01 76 4267.0
20260508123611 50 216 5.2 7.0 0.00 0.01 0.01 76 4267.2
20260508123108 50 217 4.3 6.1 0.00 0.01 0.01 75 4267.1
20260508122604 50 225 6.1 7.0 0.00 0.01 0.01 76 4267.4
20260508122101 50 270 0.9 2.6 0.00 0.01 0.01 77 4267.4
20260508121559 49 241 2.6 5.2 0.00 0.01 0.01 76 4267.3
20260508121057 49 246 6.1 7.8 0.00 0.01 0.01 77 4267.4
20260508120554 49 250 1.7 4.3 0.00 0.01 0.01 77 4267.0
20260508120053 49 273 5.2 7.0 0.00 0.01 0.01 76 4267.2
20260508115549 48 247 4.3 6.1 0.00 0.01 0.01 77 4267.2
20260508115046 48 231 7.0 8.7 0.00 0.01 0.01 77 4267.0
20260508114543 47 226 6.1 7.8 0.00 0.01 0.01 78 4267.2
20260508114039 47 240 4.3 5.2 0.00 0.01 0.01 78 4267.0
20260508113537 47 241 6.1 7.0 0.00 0.01 0.01 78 4267.2
20260508113035 47 252 6.1 6.1 0.00 0.01 0.01 78 4266.7
20260508112531 47 234 3.5 5.2 0.00 0.01 0.01 78 4266.8
20260508112028 46 259 2.6 2.6 0.00 0.01 0.01 79 4266.7
20260508111525 46 261 0.0 0.0 0.00 0.01 0.01 79 4266.8
20260508111021 46 242 0.0 0.0 0.00 0.01 0.01 80 4266.8
20260508110520 46 272 0.0 0.0 0.00 0.01 0.01 79 4266.7
20260508110015 45 272 0.0 0.9 0.00 0.01 0.01 80 4266.5
20260508105510 45 244 0.0 0.0 0.00 0.01 0.01 80 4266.6
20260508105008 45 231 0.0 0.0 0.00 0.01 0.01 80 4266.7
20260508104506 45 237 0.0 0.0 0.00 0.01 0.01 80 4266.9
20260508104002 45 234 0.0 0.0 0.00 0.01 0.01 81 4266.5
20260508103459 45 234 0.0 0.0 0.00 0.01 0.01 81 4266.3
20260508102955 45 237 0.0 0.0 0.00 0.01 0.01 81 4266.5
20260508102454 45 223 0.9 1.7 0.00 0.01 0.01 81 4266.5
20260508101951 45 238 0.0 0.0 0.00 0.01 0.01 81 4266.7
20260508101449 45 248 0.0 0.0 0.00 0.01 0.01 81 4266.3
20260508100945 45 219 0.0 0.0 0.00 0.01 0.01 81 4266.5
20260508100444 45 246 0.0 0.0 0.00 0.01 0.01 81 4266.3
20260508095940 45 257 0.0 0.0 0.00 0.01 0.01 81 4266.5
20260508095438 46 238 0.0 0.0 0.00 0.01 0.01 80 4266.4
20260508094934 46 229 0.0 0.0 0.00 0.01 0.01 80 4266.5
20260508094431 46 234 0.0 0.0 0.00 0.01 0.01 80 4266.6
20260508093928 46 243 0.0 0.0 0.00 0.01 0.01 80 4266.6
20260508093426 46 225 0.0 0.0 0.00 0.01 0.01 80 4266.5
20260508092923 46 222 0.0 0.0 0.00 0.01 0.01 81 4266.6
20260508092421 46 277 0.0 0.0 0.00 0.01 0.01 82 4266.6
20260508091919 45 230 0.0 0.0 0.00 0.01 0.01 83 4266.7
20260508091415 45 270 0.0 0.0 0.00 0.01 0.01 83 4266.4
20260508090913 45 271 0.0 0.0 0.00 0.01 0.01 83 4266.7
20260508090411 46 251 0.0 0.0 0.00 0.01 0.01 82 4266.7
20260508085906 46 255 0.0 0.0 0.00 0.01 0.01 82 4266.5
20260508085403 46 242 0.0 0.0 0.00 0.01 0.01 82 4266.7
20260508084900 46 273 0.0 0.0 0.00 0.01 0.01 82 4266.7
20260508084356 46 269 0.0 0.0 0.00 0.01 0.01 82 4266.6
20260508083854 46 282 0.0 0.0 0.00 0.01 0.01 81 4266.6
20260508083352 46 282 0.0 0.0 0.00 0.01 0.01 81 4266.6
20260508082851 46 278 0.0 0.0 0.00 0.01 0.01 80 4267.0
20260508082349 46 281 0.0 0.0 0.00 0.01 0.01 80 4266.7
20260508081846 46 247 0.0 0.0 0.00 0.01 0.01 81 4266.7
20260508081343 46 264 0.0 0.0 0.00 0.01 0.01 81 4266.8
20260508080840 46 243 0.0 0.0 0.00 0.01 0.01 81 4266.5
20260508080338 46 219 0.0 0.0 0.00 0.01 0.01 80 4266.9
20260508075834 46 210 4.3 5.2 0.00 0.01 0.01 81 4266.9
20260508075331 46 218 0.0 0.0 0.00 0.01 0.01 81 4266.6
20260508074829 46 237 4.3 4.3 0.00 0.01 0.01 81 4266.8
20260508074326 46 216 0.0 0.0 0.00 0.01 0.01 81 4266.9
20260508073823 46 250 0.0 1.7 0.00 0.01 0.01 81 4266.6
20260508073321 46 210 4.3 5.2 0.00 0.01 0.01 81 4266.8
20260508072817 46 242 0.0 0.0 0.00 0.01 0.01 82 4266.8
20260508072314 46 247 2.6 2.6 0.00 0.01 0.01 81 4266.7
20260508071811 46 280 3.5 5.2 0.00 0.01 0.01 82 4266.9
20260508071309 46 235 3.5 4.3 0.00 0.01 0.01 82 4266.7
20260508070806 46 231 3.5 4.3 0.00 0.01 0.01 82 4266.9
20260508070305 46 228 4.3 6.1 0.00 0.01 0.01 82 4266.9
20260508065802 46 210 4.3 5.2 0.00 0.01 0.01 82 4267.1
20260508065259 45 229 4.3 6.1 0.05 0.01 0.01 83 4266.8
20260508064758 45 257 2.6 2.6 0.05 0.01 0.01 82 4266.7
20260508064255 45 250 0.0 0.0 0.00 0.00 0.00 82 4267.0
20260508063752 45 247 0.0 0.0 0.00 0.00 0.00 82 4267.1
20260508063250 45 243 0.0 0.0 0.00 0.00 0.00 82 4267.1
20260508062747 45 232 3.5 4.3 0.00 0.00 0.00 82 4266.8
20260508062245 45 225 0.0 0.0 0.00 0.00 0.00 82 4267.0
20260508061741 46 231 3.5 4.3 0.00 0.00 0.00 82 4267.2
20260508061238 46 228 4.3 5.2 0.00 0.00 0.00 81 4267.3
20260508060735 46 228 3.5 4.3 0.00 0.00 0.00 81 4267.2
20260508060233 46 219 7.0 8.7 0.00 0.00 0.00 81 4267.2
20260508055728 46 238 2.6 2.6 0.00 0.00 0.00 80 4267.4
20260508055225 46 255 3.5 4.3 0.00 0.00 0.00 80 4267.4
20260508054721 46 252 3.5 4.3 0.00 0.00 0.00 80 4267.4
20260508054220 46 234 4.3 5.2 0.00 0.00 0.00 80 4267.4
20260508053716 46 225 3.5 5.2 0.00 0.00 0.00 79 4267.6
20260508053214 46 235 2.6 2.6 0.00 0.00 0.00 79 4267.6
20260508052711 47 230 3.5 4.3 0.00 0.00 0.00 78 4267.4
20260508052208 47 222 4.3 6.1 0.00 0.00 0.00 78 4267.5
20260508051704 47 269 3.5 4.3 0.00 0.00 0.00 77 4267.6
20260508051159 48 234 7.0 7.8 0.00 0.00 0.00 77 4267.7
20260508050656 47 223 7.0 7.8 0.00 0.00 0.00 77 4267.8
20260508050154 48 211 6.1 8.7 0.00 0.00 0.00 78 4267.6
20260508045649 48 216 8.7 9.6 0.00 0.00 0.00 78 4267.4
20260508045147 48 231 6.1 7.0 0.00 0.00 0.00 78 4267.1
20260508044644 48 237 6.1 9.6 0.00 0.00 0.00 78 4267.2
20260508044140 48 226 7.8 8.7 0.00 0.00 0.00 78 4267.1
20260508043637 47 293 7.0 8.7 0.00 0.00 0.00 79 4267.0
20260508043135 48 206 6.1 7.0 0.00 0.00 0.00 79 4267.2
20260508042631 48 219 7.8 9.6 0.00 0.00 0.00 78 4267.5
20260508042128 48 202 11.3 13.9 0.00 0.00 0.00 76 4267.7
20260508041624 48 228 9.6 13.0 0.00 0.00 0.00 75 4267.9
20260508041121 49 224 11.3 13.0 0.00 0.00 0.00 72 4267.8
20260508040618 47 218 11.3 15.6 0.00 0.00 0.00 76 4267.7
20260508040116 48 226 0.0 0.0 0.00 0.00 0.00 76 4267.9
20260508035613 48 221 3.5 4.3 0.00 0.00 0.00 73 4267.7
20260508035110 47 243 0.0 0.0 0.00 0.00 0.00 76 4267.6
20260508034606 47 235 0.0 0.0 0.00 0.00 0.00 78 4267.5
20260508034104 47 283 0.0 0.0 0.00 0.00 0.00 78 4267.4
20260508033601 47 281 0.0 0.0 0.00 0.00 0.00 78 4267.5
20260508033059 46 281 0.0 0.0 0.00 0.00 0.00 79 4267.7
20260508032555 46 283 0.0 0.0 0.00 0.00 0.00 78 4267.5
20260508032053 46 284 0.0 0.0 0.00 0.00 0.00 78 4267.4
20260508031550 47 284 0.0 0.0 0.00 0.00 0.00 78 4267.6
20260508031046 47 284 0.0 0.0 0.00 0.00 0.00 77 4267.7
20260508030542 47 283 0.0 0.0 0.00 0.00 0.00 77 4267.7
20260508030041 47 284 0.0 0.0 0.00 0.00 0.00 77 4267.8
20260508025536 48 282 0.0 0.0 0.00 0.00 0.00 76 4267.7
20260508025034 48 281 0.0 0.0 0.00 0.00 0.00 74 4268.0
20260508024529 48 277 0.0 0.0 0.00 0.00 0.00 74 4267.8
20260508024027 48 274 0.0 0.0 0.00 0.00 0.00 73 4267.8
20260508023523 48 265 0.0 0.0 0.00 0.00 0.00 72 4267.9
20260508023021 48 275 0.0 0.0 0.00 0.00 0.00 72 4267.9
20260508022516 48 274 0.0 0.0 0.00 0.00 0.00 72 4267.8
20260508022013 49 271 0.0 0.0 0.00 0.00 0.00 71 4267.7
20260508021509 49 221 2.6 2.6 0.00 0.00 0.00 70 4267.7
20260508021005 49 203 2.6 2.6 0.00 0.00 0.00 70 4267.8
20260508020503 49 259 0.0 0.0 0.00 0.00 0.00 69 4267.9
20260508020000 49 244 1.7 5.2 0.00 0.00 0.00 71 4267.9
20260508015458 49 263 0.0 0.0 0.00 0.00 0.00 72 4267.7
20260508014954 48 269 0.0 0.0 0.00 0.00 0.00 72 4267.7
20260508014451 48 264 1.7 1.7 0.00 0.00 0.00 71 4267.7
20260508013947 49 252 0.0 0.0 0.00 0.00 0.00 72 4267.7
20260508013443 49 237 1.7 1.7 0.00 0.00 0.00 70 4267.8
20260508012941 49 244 0.0 0.0 0.00 0.00 0.00 68 4267.7
20260508012437 49 235 2.6 2.6 0.00 0.00 0.00 67 4267.7
20260508011935 50 211 3.5 5.2 0.00 0.00 0.00 66 4267.6
20260508011434 50 234 7.8 8.7 0.00 0.00 0.00 64 4267.8
20260508010930 50 259 3.5 5.2 0.00 0.00 0.00 63 4267.6
20260508010427 51 236 6.1 8.7 0.00 0.00 0.00 61 4267.6
20260508005924 51 217 7.0 7.8 0.00 0.00 0.00 60 4267.9
20260508005421 51 247 7.8 8.7 0.00 0.00 0.00 60 4267.9
20260508004917 51 230 7.8 7.8 0.00 0.00 0.00 58 4267.8
20260508004414 52 242 7.8 9.6 0.00 0.00 0.00 57 4267.6
20260508003910 52 245 7.8 7.8 0.00 0.00 0.00 56 4267.8
20260508003407 53 252 10.4 13.0 0.00 0.00 0.00 53 4267.6
20260508002904 53 259 10.4 12.2 0.00 0.00 0.00 53 4267.5
20260508002401 53 218 11.3 14.8 0.00 0.00 0.00 52 4267.5
20260508001857 54 203 8.7 11.3 0.00 0.00 0.00 49 4267.4
20260508001353 54 247 14.8 19.1 0.00 0.00 0.00 49 4267.4
20260508000850 54 251 15.6 20.0 0.00 0.00 0.00 47 4267.2
20260508000346 54 218 9.6 11.3 0.00 0.00 0.00 46 4267.2
20260507235843 55 241 12.2 13.9 0.00 0.00 0.00 46 4267.3
20260507235340 55 229 12.2 14.8 0.00 0.00 0.00 43 4267.1
20260507234837 55 237 12.2 17.4 0.00 0.00 0.00 43 4267.2
20260507234334 56 273 8.7 11.3 0.00 0.00 0.00 40 4266.8
20260507233830 56 246 10.4 13.9 0.00 0.00 0.00 38 4267.0
20260507233328 56 233 10.4 12.2 0.00 0.00 0.00 38 4266.8
20260507232826 57 267 5.2 6.1 0.00 0.00 0.00 38 4266.8
20260507232322 57 263 7.8 11.3 0.00 0.00 0.00 39 4266.7
20260507231819 57 257 7.8 9.6 0.00 0.00 0.00 37 4266.7
20260507231316 57 262 5.2 6.1 0.00 0.00 0.00 40 4266.8
20260507230812 57 256 5.2 7.0 0.00 0.00 0.00 37 4266.8
20260507230309 57 264 6.1 6.1 0.00 0.00 0.00 37 4266.8
20260507225804 57 253 8.7 11.3 0.00 0.00 0.00 36 4266.7
20260507225300 57 266 6.1 7.0 0.00 0.00 0.00 35 4266.7
20260507224756 57 235 7.0 7.8 0.00 0.00 0.00 35 4266.8
20260507224253 57 252 3.5 4.3 0.00 0.00 0.00 38 4266.9
20260507223750 57 257 7.8 11.3 0.00 0.00 0.00 35 4266.8
20260507223246 57 253 6.1 7.0 0.00 0.00 0.00 36 4267.0
20260507222743 58 271 6.1 7.0 0.00 0.00 0.00 35 4266.8
20260507222239 58 275 7.0 8.7 0.00 0.00 0.00 34 4266.9
20260507221736 58 256 7.8 8.7 0.00 0.00 0.00 35 4266.9
20260507221232 58 274 8.7 11.3 0.00 0.00 0.00 33 4267.0
20260507220729 59 257 10.4 13.0 0.00 0.00 0.00 31 4266.7
20260507220228 59 315 7.8 9.6 0.00 0.00 0.00 34 4266.7
20260507215723 60 229 7.0 8.7 0.00 0.00 0.00 34 4266.8
20260507215221 59 254 6.1 7.8 0.00 0.00 0.00 32 4266.9
20260507214718 59 291 11.3 13.0 0.00 0.00 0.00 33 4266.8
20260507214215 60 249 14.8 17.4 0.00 0.00 0.00 32 4266.9
20260507213710 59 245 7.0 8.7 0.00 0.00 0.00 33 4266.7
20260507213208 59 265 8.7 9.6 0.00 0.00 0.00 34 4266.8
20260507212704 59 292 9.6 11.3 0.00 0.00 0.00 33 4266.7
20260507212200 58 317 8.7 11.3 0.00 0.00 0.00 34 4266.5
20260507211657 57 329 7.0 8.7 0.00 0.00 0.00 35 4266.8
20260507211153 58 328 13.0 13.9 0.00 0.00 0.00 36 4266.8
20260507210650 58 307 5.2 7.0 0.00 0.00 0.00 36 4266.9
20260507210147 56 301 7.0 7.8 0.00 0.00 0.00 38 4267.0
20260507205643 56 307 9.6 12.2 0.00 0.00 0.00 38 4267.0
20260507205140 57 318 12.2 15.6 0.00 0.00 0.00 37 4267.1
20260507204636 57 250 10.4 13.0 0.00 0.00 0.00 36 4267.0
20260507204134 59 256 7.8 7.8 0.00 0.00 0.00 37 4267.0
20260507203632 57 331 7.8 8.7 0.00 0.00 0.00 37 4267.1
20260507203129 57 345 10.4 13.0 0.00 0.00 0.00 37 4267.1
20260507202625 57 307 7.8 11.3 0.00 0.00 0.00 38 4267.1
20260507202121 57 321 11.3 14.8 0.00 0.00 0.00 38 4267.2
20260507201616 56 291 8.7 12.2 0.00 0.00 0.00 38 4267.1
20260507201114 58 332 7.8 12.2 0.00 0.00 0.00 36 4267.3
20260507200609 58 314 9.6 11.3 0.00 0.00 0.00 38 4267.3
20260507200105 58 252 10.4 13.9 0.00 0.00 0.00 37 4267.2
20260507195603 56 305 13.9 17.4 0.00 0.00 0.00 39 4267.1
20260507195100 57 339 10.4 15.6 0.00 0.00 0.00 38 4267.0
20260507194556 56 332 20.0 22.6 0.00 0.00 0.00 38 4267.2
20260507194052 57 308 10.4 13.9 0.00 0.00 0.00 38 4267.2
20260507193549 56 297 11.3 13.0 0.00 0.00 0.00 39 4267.4
20260507193046 56 307 9.6 13.0 0.00 0.00 0.00 39 4267.2
20260507192542 56 317 8.7 17.4 0.00 0.00 0.00 38 4267.3
20260507192039 58 284 11.3 13.0 0.00 0.00 0.00 37 4267.6
20260507191535 58 342 14.8 21.7 0.00 0.00 0.00 38 4267.3
20260507191032 56 251 19.1 21.7 0.00 0.00 0.00 37 4267.2
20260507190529 57 324 13.0 14.8 0.00 0.00 0.00 38 4267.2
20260507190028 57 305 13.0 15.6 0.00 0.00 0.00 39 4267.4
20260507185526 56 340 17.4 20.0 0.00 0.00 0.00 38 4267.5